Time,TemperatureF,DewpointF,PressureIn,WindDirection,WindDirectionDegrees,WindSpeedMPH,WindSpeedGustMPH,Humidity,HourlyPrecipIn,Conditions,Clouds,dailyrainin,SoftwareType,DateUTC
2013-03-07 00:02:00,41.5,20.0,30.17,North,0,0.0,0.0,42,0.00,,,0.00,WUHU216HW,2013-03-07 06:02:00,
2013-03-07 00:07:00,41.3,19.8,30.17,North,0,0.0,0.0,42,0.00,,,0.00,WUHU216HW,2013-03-07 06:07:00,
2013-03-07 00:12:00,41.1,20.2,30.16,North,0,0.0,0.0,42,0.00,,,0.00,WUHU216HW,2013-03-07 06:12:00,
2013-03-07 00:17:00,41.1,20.2,30.16,North,0,0.0,0.0,42,0.00,,,0.00,WUHU216HW,2013-03-07 06:17:00,
2013-03-07 00:22:00,40.8,19.3,30.16,North,0,0.0,0.0,42,0.00,,,0.00,WUHU216HW,2013-03-07 06:22:00,
2013-03-07 00:27:00,40.6,19.2,30.16,North,0,0.0,0.0,42,0.00,,,0.00,WUHU216HW,2013-03-07 06:27:00,
2013-03-07 00:33:00,40.6,19.2,30.16,North,0,0.0,0.0,43,0.00,,,0.00,WUHU216HW,2013-03-07 06:33:00,
2013-03-07 00:38:00,40.4,19.5,30.15,North,0,0.0,0.0,43,0.00,,,0.00,WUHU216HW,2013-03-07 06:38:00,
2013-03-07 00:43:00,40.6,19.7,30.15,North,0,0.0,0.0,43,0.00,,,0.00,WUHU216HW,2013-03-07 06:43:00,
2013-03-07 00:48:00,40.6,19.7,30.15,North,0,0.0,0.0,44,0.00,,,0.00,WUHU216HW,2013-03-07 06:48:00,
2013-03-07 00:53:00,41.1,20.7,30.15,North,0,0.0,0.0,44,0.00,,,0.00,WUHU216HW,2013-03-07 06:53:00,
2013-03-07 00:58:00,41.1,20.7,30.15,North,0,0.0,0.0,44,0.00,,,0.00,WUHU216HW,2013-03-07 06:58:00,
2013-03-07 01:03:00,41.1,20.7,30.15,North,0,0.0,0.0,44,0.00,,,0.00,WUHU216HW,2013-03-07 07:03:00,
2013-03-07 01:08:00,41.7,20.7,30.15,North,0,0.0,0.0,43,0.00,,,0.00,WUHU216HW,2013-03-07 07:08:00,
2013-03-07 01:13:00,42.4,20.8,30.15,North,0,0.0,0.0,42,0.00,,,0.00,WUHU216HW,2013-03-07 07:13:00,
2013-03-07 01:18:00,43.3,21.1,30.15,North,0,0.0,0.0,41,0.00,,,0.00,WUHU216HW,2013-03-07 07:18:00,
2013-03-07 01:23:00,43.3,21.1,30.15,North,0,0.0,0.0,41,0.00,,,0.00,WUHU216HW,2013-03-07 07:23:00,
2013-03-07 01:32:00,44.7,21.9,30.15,North,0,0.0,0.0,40,0.00,,,0.00,WUHU216HW,2013-03-07 07:32:00,
2013-03-07 01:37:00,44.9,22.6,30.14,North,0,0.0,0.0,41,0.00,,,0.00,WUHU216HW,2013-03-07 07:37:00,
2013-03-07 01:42:00,45.1,23.3,30.14,North,0,0.0,0.0,42,0.00,,,0.00,WUHU216HW,2013-03-07 07:42:00,
2013-03-07 01:47:00,45.3,23.4,30.13,North,0,0.0,0.0,42,0.00,,,0.00,WUHU216HW,2013-03-07 07:47:00,
2013-03-07 01:52:00,45.3,23.4,30.13,North,0,0.0,0.0,43,0.00,,,0.00,WUHU216HW,2013-03-07 07:52:00,
2013-03-07 01:57:00,45.5,24.1,30.14,North,0,0.0,0.0,43,0.00,,,0.00,WUHU216HW,2013-03-07 07:57:00,
2013-03-07 02:02:00,45.3,24.0,30.14,North,0,0.0,0.0,44,0.00,,,0.00,WUHU216HW,2013-03-07 08:02:00,
2013-03-07 02:07:00,45.5,25.2,30.14,North,0,0.0,0.0,45,0.00,,,0.00,WUHU216HW,2013-03-07 08:07:00,
2013-03-07 02:12:00,45.5,25.2,30.14,North,0,0.0,0.0,46,0.00,,,0.00,WUHU216HW,2013-03-07 08:12:00,
2013-03-07 02:17:00,45.5,25.2,30.14,North,0,0.0,0.0,47,0.00,,,0.00,WUHU216HW,2013-03-07 08:17:00,
2013-03-07 02:22:00,45.3,26.1,30.14,North,0,0.0,0.0,49,0.00,,,0.00,WUHU216HW,2013-03-07 08:22:00,
2013-03-07 02:28:00,45.6,27.5,30.13,North,0,0.0,0.0,49,0.00,,,0.00,WUHU216HW,2013-03-07 08:28:00,
2013-03-07 02:33:00,45.8,27.7,30.13,North,0,0.0,0.0,49,0.00,,,0.00,WUHU216HW,2013-03-07 08:33:00,
2013-03-07 02:38:00,46.0,27.8,30.12,North,0,0.0,0.0,49,0.00,,,0.00,WUHU216HW,2013-03-07 08:38:00,
2013-03-07 02:43:00,46.0,27.8,30.13,North,0,0.0,0.0,48,0.00,,,0.00,WUHU216HW,2013-03-07 08:43:00,
2013-03-07 02:48:00,46.0,27.8,30.12,North,0,0.0,0.0,48,0.00,,,0.00,WUHU216HW,2013-03-07 08:48:00,
2013-03-07 02:53:00,45.6,27.0,30.12,North,0,0.0,0.0,48,0.00,,,0.00,WUHU216HW,2013-03-07 08:53:00,
2013-03-07 02:58:00,45.6,27.0,30.12,North,0,0.0,0.0,48,0.00,,,0.00,WUHU216HW,2013-03-07 08:58:00,
2013-03-07 03:03:00,45.6,27.0,30.12,North,0,0.0,0.0,48,0.00,,,0.00,WUHU216HW,2013-03-07 09:03:00,
2013-03-07 03:08:00,45.5,26.8,30.11,North,0,0.0,0.0,48,0.00,,,0.00,WUHU216HW,2013-03-07 09:08:00,
2013-03-07 03:13:00,45.3,27.2,30.11,North,0,0.0,0.0,49,0.00,,,0.00,WUHU216HW,2013-03-07 09:13:00,
2013-03-07 03:18:00,45.1,27.0,30.11,North,0,0.0,0.0,49,0.00,,,0.00,WUHU216HW,2013-03-07 09:18:00,
2013-03-07 03:23:00,44.7,26.7,30.10,North,0,0.0,0.0,49,0.00,,,0.00,WUHU216HW,2013-03-07 09:23:00,
2013-03-07 03:28:00,43.8,26.9,30.10,North,0,0.0,0.0,51,0.00,,,0.00,WUHU216HW,2013-03-07 09:28:00,
2013-03-07 03:33:00,43.7,26.7,30.10,North,0,0.0,0.0,51,0.00,,,0.00,WUHU216HW,2013-03-07 09:33:00,
2013-03-07 03:38:00,43.5,26.6,30.10,North,0,0.0,0.0,51,0.00,,,0.00,WUHU216HW,2013-03-07 09:38:00,
2013-03-07 03:43:00,43.5,27.9,30.10,North,0,0.0,0.0,54,0.00,,,0.00,WUHU216HW,2013-03-07 09:43:00,
2013-03-07 03:48:00,43.8,28.2,30.10,North,0,0.0,0.0,54,0.00,,,0.00,WUHU216HW,2013-03-07 09:48:00,
2013-03-07 03:53:00,44.2,28.6,30.09,North,0,0.0,0.0,54,0.00,,,0.00,WUHU216HW,2013-03-07 09:53:00,
2013-03-07 03:58:00,44.2,28.6,30.09,North,0,0.0,0.0,55,0.00,,,0.00,WUHU216HW,2013-03-07 09:58:00,
2013-03-07 04:03:00,44.2,28.6,30.09,North,0,0.0,0.0,55,0.00,,,0.00,WUHU216HW,2013-03-07 10:03:00,
2013-03-07 04:08:00,44.4,29.2,30.09,North,0,0.0,0.0,55,0.00,,,0.00,WUHU216HW,2013-03-07 10:08:00,
2013-03-07 04:13:00,44.6,29.3,30.09,North,0,0.0,0.0,55,0.00,,,0.00,WUHU216HW,2013-03-07 10:13:00,
2013-03-07 04:18:00,44.4,29.2,30.10,North,0,0.0,0.0,55,0.00,,,0.00,WUHU216HW,2013-03-07 10:18:00,
2013-03-07 04:23:00,44.4,29.2,30.10,North,0,0.0,0.0,55,0.00,,,0.00,WUHU216HW,2013-03-07 10:23:00,
2013-03-07 04:28:00,44.4,29.2,30.10,North,0,0.0,0.0,56,0.00,,,0.00,WUHU216HW,2013-03-07 10:28:00,
2013-03-07 04:33:00,44.4,29.2,30.09,North,0,0.0,0.0,56,0.00,,,0.00,WUHU216HW,2013-03-07 10:33:00,
2013-03-07 04:38:00,44.4,29.2,30.09,North,0,0.0,0.0,56,0.00,,,0.00,WUHU216HW,2013-03-07 10:38:00,
2013-03-07 04:43:00,44.4,29.2,30.09,North,0,0.0,0.0,56,0.00,,,0.00,WUHU216HW,2013-03-07 10:43:00,
2013-03-07 04:48:00,44.4,29.2,30.09,North,0,0.0,0.0,56,0.00,,,0.00,WUHU216HW,2013-03-07 10:48:00,
2013-03-07 04:53:00,44.2,29.0,30.10,North,0,0.0,0.0,55,0.00,,,0.00,WUHU216HW,2013-03-07 10:53:00,
2013-03-07 04:58:00,44.4,29.2,30.09,North,0,0.0,0.0,55,0.00,,,0.00,WUHU216HW,2013-03-07 10:58:00,
2013-03-07 05:03:00,44.2,29.0,30.09,North,0,0.0,0.0,55,0.00,,,0.00,WUHU216HW,2013-03-07 11:03:00,
2013-03-07 05:08:00,44.2,29.0,30.10,North,0,0.0,0.0,55,0.00,,,0.00,WUHU216HW,2013-03-07 11:08:00,
2013-03-07 05:13:00,44.2,29.0,30.09,North,0,0.0,0.0,55,0.00,,,0.00,WUHU216HW,2013-03-07 11:13:00,
2013-03-07 05:18:00,44.2,29.0,30.09,North,0,0.0,0.0,55,0.00,,,0.00,WUHU216HW,2013-03-07 11:18:00,
2013-03-07 05:23:00,44.2,29.0,30.10,North,0,0.0,0.0,56,0.00,,,0.00,WUHU216HW,2013-03-07 11:23:00,
2013-03-07 05:29:00,44.2,29.0,30.10,North,0,0.0,0.0,56,0.00,,,0.00,WUHU216HW,2013-03-07 11:29:00,
2013-03-07 05:34:00,44.2,29.0,30.10,North,0,0.0,0.0,57,0.00,,,0.00,WUHU216HW,2013-03-07 11:34:00,
2013-03-07 05:39:00,44.2,29.0,30.10,North,0,0.0,0.0,57,0.00,,,0.00,WUHU216HW,2013-03-07 11:39:00,
2013-03-07 05:44:00,44.2,29.0,30.10,North,0,0.0,0.0,58,0.00,,,0.00,WUHU216HW,2013-03-07 11:44:00,
2013-03-07 05:49:00,44.2,29.0,30.10,North,0,0.0,0.0,60,0.00,,,0.00,WUHU216HW,2013-03-07 11:49:00,
2013-03-07 05:54:00,44.2,29.0,30.10,North,0,0.0,0.0,61,0.00,,,0.00,WUHU216HW,2013-03-07 11:54:00,
2013-03-07 05:59:00,44.2,29.0,30.10,North,0,0.0,0.0,63,0.00,,,0.00,WUHU216HW,2013-03-07 11:59:00,
2013-03-07 06:04:00,44.2,29.0,30.10,North,0,0.0,0.0,64,0.00,,,0.00,WUHU216HW,2013-03-07 12:04:00,
2013-03-07 06:09:00,44.2,29.0,30.11,North,0,0.0,0.0,65,0.00,,,0.00,WUHU216HW,2013-03-07 12:09:00,
2013-03-07 06:14:00,44.2,29.0,30.11,North,0,0.0,0.0,67,0.00,,,0.00,WUHU216HW,2013-03-07 12:14:00,
2013-03-07 06:19:00,44.2,29.0,30.11,North,0,0.0,0.0,68,0.00,,,0.00,WUHU216HW,2013-03-07 12:19:00,
2013-03-07 06:24:00,44.2,29.0,30.11,North,0,0.0,0.0,70,0.00,,,0.00,WUHU216HW,2013-03-07 12:24:00,
2013-03-07 06:29:00,44.4,35.6,30.12,North,0,0.0,0.0,71,0.00,,,0.00,WUHU216HW,2013-03-07 12:29:00,
2013-03-07 06:34:00,44.4,35.6,30.13,North,0,0.0,0.0,72,0.00,,,0.00,WUHU216HW,2013-03-07 12:34:00,
2013-03-07 06:39:00,44.4,35.6,30.13,North,0,0.0,0.0,73,0.00,,,0.00,WUHU216HW,2013-03-07 12:39:00,
2013-03-07 06:44:00,44.6,36.4,30.13,North,0,0.0,0.0,73,0.00,,,0.00,WUHU216HW,2013-03-07 12:44:00,
2013-03-07 06:49:00,44.6,36.4,30.13,North,0,0.0,0.0,73,0.00,,,0.00,WUHU216HW,2013-03-07 12:49:00,
2013-03-07 06:54:00,44.7,36.6,30.13,North,0,0.0,0.0,73,0.00,,,0.00,WUHU216HW,2013-03-07 12:54:00,
2013-03-07 06:59:00,44.7,36.6,30.14,North,0,0.0,0.0,75,0.00,,,0.00,WUHU216HW,2013-03-07 12:59:00,
2013-03-07 07:04:00,44.9,37.4,30.13,North,0,0.0,0.0,76,0.00,,,0.00,WUHU216HW,2013-03-07 13:04:00,
2013-03-07 07:09:00,45.1,38.3,30.14,North,0,0.0,0.0,77,0.00,,,0.00,WUHU216HW,2013-03-07 13:09:00,
2013-03-07 07:14:00,45.3,38.5,30.14,North,0,0.0,0.0,77,0.00,,,0.00,WUHU216HW,2013-03-07 13:14:00,
2013-03-07 07:19:00,45.3,38.5,30.14,North,0,0.0,0.0,78,0.00,,,0.00,WUHU216HW,2013-03-07 13:19:00,
2013-03-07 07:24:00,45.5,39.0,30.15,North,0,0.0,0.0,78,0.00,,,0.00,WUHU216HW,2013-03-07 13:24:00,
2013-03-07 07:29:00,46.0,39.9,30.15,North,0,0.0,0.0,79,0.00,,,0.00,WUHU216HW,2013-03-07 13:29:00,
2013-03-07 07:34:00,46.0,39.9,30.16,North,0,0.0,0.0,79,0.00,,,0.00,WUHU216HW,2013-03-07 13:34:00,
2013-03-07 07:39:00,46.5,40.8,30.16,North,0,0.0,0.0,80,0.00,,,0.00,WUHU216HW,2013-03-07 13:39:00,
2013-03-07 07:44:00,46.9,41.1,30.16,North,0,0.0,0.0,80,0.00,,,0.00,WUHU216HW,2013-03-07 13:44:00,
2013-03-07 07:49:00,47.1,41.2,30.17,North,0,0.0,0.0,80,0.00,,,0.00,WUHU216HW,2013-03-07 13:49:00,
2013-03-07 07:54:00,47.8,41.9,30.16,North,0,0.0,0.0,80,0.00,,,0.00,WUHU216HW,2013-03-07 13:54:00,
2013-03-07 07:59:00,48.0,42.1,30.16,North,0,0.0,0.0,80,0.00,,,0.00,WUHU216HW,2013-03-07 13:59:00,
2013-03-07 08:04:00,48.3,42.4,30.16,North,0,0.0,0.0,80,0.00,,,0.00,WUHU216HW,2013-03-07 14:04:00,
2013-03-07 08:09:00,48.7,42.8,30.17,North,0,0.0,0.0,80,0.00,,,0.00,WUHU216HW,2013-03-07 14:09:00,
2013-03-07 08:14:00,48.9,42.9,30.17,North,0,0.0,0.0,80,0.00,,,0.00,WUHU216HW,2013-03-07 14:14:00,
2013-03-07 08:19:00,49.2,43.3,30.17,North,0,0.0,0.0,80,0.00,,,0.00,WUHU216HW,2013-03-07 14:19:00,
2013-03-07 08:24:00,49.8,43.8,30.17,North,0,0.0,0.0,80,0.00,,,0.00,WUHU216HW,2013-03-07 14:24:00,
2013-03-07 08:29:00,50.3,44.0,30.17,North,0,0.0,0.0,79,0.00,,,0.00,WUHU216HW,2013-03-07 14:29:00,
2013-03-07 08:34:00,50.5,44.2,30.17,North,0,0.0,0.0,79,0.00,,,0.00,WUHU216HW,2013-03-07 14:34:00,
2013-03-07 08:39:00,50.9,44.6,30.18,North,0,0.0,0.0,79,0.00,,,0.00,WUHU216HW,2013-03-07 14:39:00,
2013-03-07 08:44:00,51.4,45.1,30.18,North,0,0.0,0.0,79,0.00,,,0.00,WUHU216HW,2013-03-07 14:44:00,
2013-03-07 08:49:00,51.6,45.3,30.18,North,0,0.0,0.0,79,0.00,,,0.00,WUHU216HW,2013-03-07 14:49:00,
2013-03-07 08:54:00,52.3,45.7,30.18,North,0,0.0,0.0,78,0.00,,,0.00,WUHU216HW,2013-03-07 14:54:00,
2013-03-07 08:59:00,52.5,45.8,30.18,North,0,0.0,0.0,78,0.00,,,0.00,WUHU216HW,2013-03-07 14:59:00,
2013-03-07 09:04:00,53.4,46.0,30.18,North,0,0.0,0.0,76,0.00,,,0.00,WUHU216HW,2013-03-07 15:04:00,
2013-03-07 09:09:00,53.9,46.5,30.18,North,0,0.0,0.0,76,0.00,,,0.00,WUHU216HW,2013-03-07 15:09:00,
2013-03-07 09:14:00,54.3,46.5,30.19,North,0,0.0,0.0,75,0.00,,,0.00,WUHU216HW,2013-03-07 15:14:00,
2013-03-07 09:19:00,55.0,47.2,30.18,North,0,0.0,0.0,75,0.00,,,0.00,WUHU216HW,2013-03-07 15:19:00,
2013-03-07 09:24:00,55.2,46.7,30.18,North,0,0.0,0.0,73,0.00,,,0.00,WUHU216HW,2013-03-07 15:24:00,
2013-03-07 09:29:00,55.5,46.7,30.17,North,0,0.0,0.0,72,0.00,,,0.00,WUHU216HW,2013-03-07 15:29:00,
2013-03-07 09:34:00,56.1,47.2,30.17,North,0,0.0,0.0,72,0.00,,,0.00,WUHU216HW,2013-03-07 15:34:00,
2013-03-07 09:39:00,56.4,47.1,30.17,North,0,0.0,0.0,71,0.00,,,0.00,WUHU216HW,2013-03-07 15:39:00,
2013-03-07 09:44:00,57.3,47.6,30.18,North,0,0.0,0.0,70,0.00,,,0.00,WUHU216HW,2013-03-07 15:44:00,
2013-03-07 09:49:00,57.5,47.4,30.17,North,0,0.0,0.0,69,0.00,,,0.00,WUHU216HW,2013-03-07 15:49:00,
2013-03-07 09:54:00,58.1,47.5,30.16,North,0,0.0,0.0,68,0.00,,,0.00,WUHU216HW,2013-03-07 15:54:00,
2013-03-07 09:59:00,59.0,47.6,30.17,North,0,0.0,0.0,66,0.00,,,0.00,WUHU216HW,2013-03-07 15:59:00,
2013-03-07 10:04:00,59.0,47.6,30.16,North,0,0.0,0.0,66,0.00,,,0.00,WUHU216HW,2013-03-07 16:04:00,
2013-03-07 10:10:00,59.0,47.6,30.16,North,0,0.0,0.0,65,0.00,,,0.00,WUHU216HW,2013-03-07 16:10:00,
2013-03-07 10:15:00,59.0,47.2,30.16,North,0,0.0,0.0,65,0.00,,,0.00,WUHU216HW,2013-03-07 16:15:00,
2013-03-07 10:20:00,59.9,48.1,30.17,North,0,0.0,0.0,65,0.00,,,0.00,WUHU216HW,2013-03-07 16:20:00,
2013-03-07 10:25:00,60.4,48.6,30.17,North,0,0.0,0.0,63,0.00,,,0.00,WUHU216HW,2013-03-07 16:25:00,
2013-03-07 10:30:00,60.9,48.3,30.16,North,0,0.0,0.0,63,0.00,,,0.00,WUHU216HW,2013-03-07 16:30:00,
2013-03-07 10:35:00,61.3,48.2,30.16,North,0,0.0,0.0,62,0.00,,,0.00,WUHU216HW,2013-03-07 16:35:00,
2013-03-07 10:40:00,61.8,48.3,30.16,North,0,0.0,0.0,61,0.00,,,0.00,WUHU216HW,2013-03-07 16:40:00,
2013-03-07 10:45:00,62.4,48.4,30.17,North,0,0.0,0.0,60,0.00,,,0.00,WUHU216HW,2013-03-07 16:45:00,
2013-03-07 10:50:00,62.4,48.4,30.17,North,0,0.0,0.0,60,0.00,,,0.00,WUHU216HW,2013-03-07 16:50:00,
2013-03-07 10:55:00,63.5,48.8,30.16,North,0,0.0,0.0,59,0.00,,,0.00,WUHU216HW,2013-03-07 16:55:00,
2013-03-07 11:00:00,64.0,48.8,30.16,North,0,0.0,0.0,58,0.00,,,0.00,WUHU216HW,2013-03-07 17:00:00,
2013-03-07 11:05:00,64.4,48.7,30.16,North,0,0.0,0.0,57,0.00,,,0.00,WUHU216HW,2013-03-07 17:05:00,
2013-03-07 11:10:00,65.1,49.4,30.16,North,0,0.0,0.0,57,0.00,,,0.00,WUHU216HW,2013-03-07 17:10:00,
2013-03-07 11:15:00,65.4,49.3,30.16,North,0,0.0,0.0,55,0.00,,,0.00,WUHU216HW,2013-03-07 17:15:00,
2013-03-07 11:20:00,65.4,49.3,30.16,North,0,0.0,0.0,55,0.00,,,0.00,WUHU216HW,2013-03-07 17:20:00,
2013-03-07 11:25:00,65.8,49.6,30.16,North,0,0.0,0.0,55,0.00,,,0.00,WUHU216HW,2013-03-07 17:25:00,
2013-03-07 11:30:00,67.2,50.0,30.16,North,0,0.0,0.0,54,0.00,,,0.00,WUHU216HW,2013-03-07 17:30:00,
2013-03-07 11:35:00,67.4,49.2,30.16,North,0,0.0,0.0,52,0.00,,,0.00,WUHU216HW,2013-03-07 17:35:00,
2013-03-07 11:40:00,67.2,49.0,30.15,North,0,0.0,0.0,52,0.00,,,0.00,WUHU216HW,2013-03-07 17:40:00,
2013-03-07 11:45:00,67.4,48.7,30.15,North,0,0.0,0.0,51,0.00,,,0.00,WUHU216HW,2013-03-07 17:45:00,
2013-03-07 11:50:00,67.6,49.3,30.15,North,0,0.0,0.0,52,0.00,,,0.00,WUHU216HW,2013-03-07 17:50:00,
2013-03-07 11:55:00,68.3,49.0,30.15,North,0,0.0,0.0,50,0.00,,,0.00,WUHU216HW,2013-03-07 17:55:00,
2013-03-07 12:00:00,68.5,48.0,30.15,North,0,0.0,0.0,47,0.00,,,0.00,WUHU216HW,2013-03-07 18:00:00,
2013-03-07 12:06:00,68.1,47.7,30.14,North,0,0.0,0.0,48,0.00,,,0.00,WUHU216HW,2013-03-07 18:06:00,
2013-03-07 12:11:00,67.1,47.9,30.14,North,0,0.0,0.0,50,0.00,,,0.00,WUHU216HW,2013-03-07 18:11:00,
2013-03-07 12:16:00,67.1,47.9,30.14,North,0,0.0,0.0,50,0.00,,,0.00,WUHU216HW,2013-03-07 18:16:00,
2013-03-07 12:21:00,67.6,47.8,30.13,North,0,0.0,0.0,49,0.00,,,0.00,WUHU216HW,2013-03-07 18:21:00,
2013-03-07 12:26:00,68.7,47.6,30.13,North,0,0.0,0.0,47,0.00,,,0.00,WUHU216HW,2013-03-07 18:26:00,
2013-03-07 12:31:00,67.8,48.5,30.13,North,0,0.0,0.0,50,0.00,,,0.00,WUHU216HW,2013-03-07 18:31:00,
2013-03-07 12:36:00,67.6,48.9,30.13,North,0,0.0,0.0,51,0.00,,,0.00,WUHU216HW,2013-03-07 18:36:00,
2013-03-07 12:41:00,67.8,48.5,30.12,North,0,0.0,0.0,49,0.00,,,0.00,WUHU216HW,2013-03-07 18:41:00,
2013-03-07 12:46:00,68.1,48.9,30.12,North,0,0.0,0.0,50,0.00,,,0.00,WUHU216HW,2013-03-07 18:46:00,
2013-03-07 12:51:00,68.5,48.0,30.12,North,0,0.0,0.0,48,0.00,,,0.00,WUHU216HW,2013-03-07 18:51:00,
2013-03-07 12:56:00,68.7,47.0,30.11,North,0,0.0,0.0,46,0.00,,,0.00,WUHU216HW,2013-03-07 18:56:00,
2013-03-07 13:01:00,68.5,46.2,30.11,North,0,0.0,0.0,46,0.00,,,0.00,WUHU216HW,2013-03-07 19:01:00,
2013-03-07 13:06:00,69.0,47.3,30.11,North,0,0.0,0.0,46,0.00,,,0.00,WUHU216HW,2013-03-07 19:06:00,
2013-03-07 13:11:00,69.4,47.0,30.11,North,0,0.0,0.0,45,0.00,,,0.00,WUHU216HW,2013-03-07 19:11:00,
2013-03-07 13:16:00,69.4,47.6,30.10,North,0,0.0,0.0,46,0.00,,,0.00,WUHU216HW,2013-03-07 19:16:00,
2013-03-07 13:21:00,69.6,47.8,30.10,North,0,0.0,0.0,46,0.00,,,0.00,WUHU216HW,2013-03-07 19:21:00,
2013-03-07 13:26:00,69.4,47.6,30.10,North,0,0.0,0.0,46,0.00,,,0.00,WUHU216HW,2013-03-07 19:26:00,
2013-03-07 13:31:00,69.4,47.0,30.10,North,0,0.0,0.0,45,0.00,,,0.00,WUHU216HW,2013-03-07 19:31:00,
2013-03-07 13:36:00,69.9,47.5,30.10,North,0,0.0,0.0,45,0.00,,,0.00,WUHU216HW,2013-03-07 19:36:00,
2013-03-07 13:41:00,70.3,47.8,30.10,North,0,0.0,0.0,44,0.00,,,0.00,WUHU216HW,2013-03-07 19:41:00,
2013-03-07 13:46:00,70.5,48.0,30.09,North,0,0.0,0.0,45,0.00,,,0.00,WUHU216HW,2013-03-07 19:46:00,
2013-03-07 13:51:00,71.9,48.7,30.09,North,0,0.0,0.0,44,0.00,,,0.00,WUHU216HW,2013-03-07 19:51:00,
2013-03-07 13:56:00,71.7,47.9,30.09,North,0,0.0,0.0,43,0.00,,,0.00,WUHU216HW,2013-03-07 19:56:00,
2013-03-07 14:01:00,70.3,47.8,30.09,North,0,0.0,0.0,45,0.00,,,0.00,WUHU216HW,2013-03-07 20:01:00,
2013-03-07 14:06:00,70.1,47.1,30.09,North,0,0.0,0.0,42,0.00,,,0.00,WUHU216HW,2013-03-07 20:06:00,
2013-03-07 14:11:00,69.8,46.2,30.09,North,0,0.0,0.0,43,0.00,,,0.00,WUHU216HW,2013-03-07 20:11:00,
2013-03-07 14:16:00,70.8,45.9,30.08,North,0,0.0,0.0,41,0.00,,,0.00,WUHU216HW,2013-03-07 20:16:00,
2013-03-07 14:21:00,70.8,45.9,30.08,North,0,0.0,0.0,41,0.00,,,0.00,WUHU216HW,2013-03-07 20:21:00,
2013-03-07 14:34:00,71.7,47.9,30.07,North,0,0.0,0.0,43,0.00,,,0.00,WUHU216HW,2013-03-07 20:34:00,
2013-03-07 14:39:00,72.1,48.3,30.07,North,0,0.0,0.0,43,0.00,,,0.00,WUHU216HW,2013-03-07 20:39:00,
2013-03-07 14:44:00,71.7,47.9,30.06,North,0,0.0,0.0,43,0.00,,,0.00,WUHU216HW,2013-03-07 20:44:00,
2013-03-07 14:49:00,71.4,48.2,30.07,North,0,0.0,0.0,43,0.00,,,0.00,WUHU216HW,2013-03-07 20:49:00,
2013-03-07 14:54:00,71.0,47.9,30.06,North,0,0.0,0.0,44,0.00,,,0.00,WUHU216HW,2013-03-07 20:54:00,
2013-03-07 14:59:00,71.0,47.9,30.06,North,0,0.0,0.0,44,0.00,,,0.00,WUHU216HW,2013-03-07 20:59:00,
2013-03-07 15:04:00,70.5,48.0,30.06,North,0,0.0,0.0,45,0.00,,,0.00,WUHU216HW,2013-03-07 21:04:00,
2013-03-07 15:09:00,70.5,48.0,30.06,North,0,0.0,0.0,45,0.00,,,0.00,WUHU216HW,2013-03-07 21:09:00,
2013-03-07 15:14:00,70.5,48.0,30.06,North,0,0.0,0.0,45,0.00,,,0.00,WUHU216HW,2013-03-07 21:14:00,
2013-03-07 15:19:00,70.8,48.3,30.06,North,0,0.0,0.0,45,0.00,,,0.00,WUHU216HW,2013-03-07 21:19:00,
2013-03-07 15:24:00,71.6,49.6,30.06,North,0,0.0,0.0,46,0.00,,,0.00,WUHU216HW,2013-03-07 21:24:00,
2013-03-07 15:29:00,73.5,49.0,30.05,North,0,0.0,0.0,42,0.00,,,0.00,WUHU216HW,2013-03-07 21:29:00,
2013-03-07 15:34:00,72.5,48.6,30.05,North,0,0.0,0.0,43,0.00,,,0.00,WUHU216HW,2013-03-07 21:34:00,
2013-03-07 15:39:00,72.3,48.4,30.05,North,0,0.0,0.0,43,0.00,,,0.00,WUHU216HW,2013-03-07 21:39:00,
2013-03-07 15:44:00,72.1,48.3,30.05,North,0,0.0,0.0,43,0.00,,,0.00,WUHU216HW,2013-03-07 21:44:00,
2013-03-07 15:50:00,72.5,48.6,30.05,North,0,0.0,0.0,43,0.00,,,0.00,WUHU216HW,2013-03-07 21:50:00,
2013-03-07 15:55:00,73.7,49.1,30.05,North,0,0.0,0.0,42,0.00,,,0.00,WUHU216HW,2013-03-07 21:55:00,
2013-03-07 16:00:00,73.7,49.1,30.04,North,0,0.0,0.0,41,0.00,,,0.00,WUHU216HW,2013-03-07 22:00:00,
2013-03-07 16:05:00,73.0,48.5,30.04,North,0,0.0,0.0,42,0.00,,,0.00,WUHU216HW,2013-03-07 22:05:00,
2013-03-07 16:10:00,72.3,48.4,30.04,North,0,0.0,0.0,43,0.00,,,0.00,WUHU216HW,2013-03-07 22:10:00,
2013-03-07 16:15:00,71.6,48.4,30.04,North,0,0.0,0.0,44,0.00,,,0.00,WUHU216HW,2013-03-07 22:15:00,
2013-03-07 16:20:00,72.1,49.4,30.05,North,0,0.0,0.0,44,0.00,,,0.00,WUHU216HW,2013-03-07 22:20:00,
2013-03-07 16:25:00,71.6,48.4,30.05,North,0,0.0,0.0,44,0.00,,,0.00,WUHU216HW,2013-03-07 22:25:00,
2013-03-07 16:30:00,71.2,48.0,30.05,North,0,0.0,0.0,44,0.00,,,0.00,WUHU216HW,2013-03-07 22:30:00,
2013-03-07 16:35:00,71.2,48.0,30.05,North,0,0.0,0.0,45,0.00,,,0.00,WUHU216HW,2013-03-07 22:35:00,
2013-03-07 16:40:00,70.5,48.0,30.05,North,0,0.0,0.0,46,0.00,,,0.00,WUHU216HW,2013-03-07 22:40:00,
2013-03-07 16:45:00,70.8,48.9,30.04,North,0,0.0,0.0,46,0.00,,,0.00,WUHU216HW,2013-03-07 22:45:00,
2013-03-07 16:50:00,70.8,48.9,30.04,North,0,0.0,0.0,46,0.00,,,0.00,WUHU216HW,2013-03-07 22:50:00,
2013-03-07 16:55:00,71.2,49.8,30.05,North,0,0.0,0.0,46,0.00,,,0.00,WUHU216HW,2013-03-07 22:55:00,
2013-03-07 17:00:00,71.2,48.6,30.04,North,0,0.0,0.0,45,0.00,,,0.00,WUHU216HW,2013-03-07 23:00:00,
2013-03-07 17:05:00,70.5,48.6,30.04,North,0,0.0,0.0,46,0.00,,,0.00,WUHU216HW,2013-03-07 23:05:00,
2013-03-07 17:10:00,70.5,48.6,30.05,North,0,0.0,0.0,47,0.00,,,0.00,WUHU216HW,2013-03-07 23:10:00,
2013-03-07 17:16:00,70.3,49.6,30.05,North,0,0.0,0.0,48,0.00,,,0.00,WUHU216HW,2013-03-07 23:16:00,
2013-03-07 17:21:00,70.1,49.4,30.05,North,0,0.0,0.0,48,0.00,,,0.00,WUHU216HW,2013-03-07 23:21:00,
2013-03-07 17:26:00,69.4,49.4,30.04,North,0,0.0,0.0,49,0.00,,,0.00,WUHU216HW,2013-03-07 23:26:00,
2013-03-07 17:31:00,69.0,49.7,30.04,North,0,0.0,0.0,50,0.00,,,0.00,WUHU216HW,2013-03-07 23:31:00,
2013-03-07 17:36:00,68.5,49.7,30.05,North,0,0.0,0.0,52,0.00,,,0.00,WUHU216HW,2013-03-07 23:36:00,
2013-03-07 17:41:00,68.3,50.0,30.05,North,0,0.0,0.0,52,0.00,,,0.00,WUHU216HW,2013-03-07 23:41:00,
2013-03-07 17:46:00,68.1,49.8,30.05,North,0,0.0,0.0,52,0.00,,,0.00,WUHU216HW,2013-03-07 23:46:00,
2013-03-07 17:51:00,68.1,50.3,30.05,North,0,0.0,0.0,53,0.00,,,0.00,WUHU216HW,2013-03-07 23:51:00,
2013-03-07 17:56:00,68.0,50.2,30.05,North,0,0.0,0.0,53,0.00,,,0.00,WUHU216HW,2013-03-07 23:56:00,
2013-03-07 18:01:00,67.6,50.3,30.05,North,0,0.0,0.0,54,0.00,,,0.00,WUHU216HW,2013-03-08 00:01:00,
2013-03-07 18:06:00,67.6,50.3,30.05,North,0,0.0,0.0,54,0.00,,,0.00,WUHU216HW,2013-03-08 00:06:00,
2013-03-07 18:11:00,67.2,50.5,30.05,North,0,0.0,0.0,55,0.00,,,0.00,WUHU216HW,2013-03-08 00:11:00,
2013-03-07 18:16:00,67.1,50.8,30.05,North,0,0.0,0.0,56,0.00,,,0.00,WUHU216HW,2013-03-08 00:16:00,
2013-03-07 18:21:00,66.7,51.0,30.06,North,0,0.0,0.0,57,0.00,,,0.00,WUHU216HW,2013-03-08 00:21:00,
2013-03-07 18:26:00,66.3,51.1,30.06,North,0,0.0,0.0,58,0.00,,,0.00,WUHU216HW,2013-03-08 00:26:00,
2013-03-07 18:31:00,66.3,51.1,30.06,North,0,0.0,0.0,59,0.00,,,0.00,WUHU216HW,2013-03-08 00:31:00,
2013-03-07 18:36:00,66.0,51.8,30.06,North,0,0.0,0.0,60,0.00,,,0.00,WUHU216HW,2013-03-08 00:36:00,
2013-03-07 18:41:00,65.8,51.6,30.07,North,0,0.0,0.0,61,0.00,,,0.00,WUHU216HW,2013-03-08 00:41:00,
2013-03-07 18:46:00,65.4,51.6,30.06,North,0,0.0,0.0,61,0.00,,,0.00,WUHU216HW,2013-03-08 00:46:00,
2013-03-07 18:51:00,65.1,51.7,30.06,North,0,0.0,0.0,63,0.00,,,0.00,WUHU216HW,2013-03-08 00:51:00,
2013-03-07 18:56:00,64.7,51.8,30.07,North,0,0.0,0.0,63,0.00,,,0.00,WUHU216HW,2013-03-08 00:56:00,
2013-03-07 19:01:00,64.5,51.6,30.06,North,0,0.0,0.0,63,0.00,,,0.00,WUHU216HW,2013-03-08 01:01:00,
2013-03-07 19:06:00,64.2,51.7,30.07,North,0,0.0,0.0,64,0.00,,,0.00,WUHU216HW,2013-03-08 01:06:00,
2013-03-07 19:11:00,64.0,52.0,30.07,North,0,0.0,0.0,65,0.00,,,0.00,WUHU216HW,2013-03-08 01:11:00,
2013-03-07 19:16:00,63.8,51.8,30.07,North,0,0.0,0.0,65,0.00,,,0.00,WUHU216HW,2013-03-08 01:16:00,
2013-03-07 19:21:00,63.6,51.6,30.07,North,0,0.0,0.0,65,0.00,,,0.00,WUHU216HW,2013-03-08 01:21:00,
2013-03-07 19:26:00,63.5,51.9,30.07,North,0,0.0,0.0,66,0.00,,,0.00,WUHU216HW,2013-03-08 01:26:00,
2013-03-07 19:31:00,63.3,51.7,30.07,North,0,0.0,0.0,66,0.00,,,0.00,WUHU216HW,2013-03-08 01:31:00,
2013-03-07 19:36:00,63.1,51.5,30.07,North,0,0.0,0.0,66,0.00,,,0.00,WUHU216HW,2013-03-08 01:36:00,
2013-03-07 19:41:00,63.1,51.5,30.07,North,0,0.0,0.0,67,0.00,,,0.00,WUHU216HW,2013-03-08 01:41:00,
2013-03-07 19:46:00,62.7,51.6,30.07,North,0,0.0,0.0,67,0.00,,,0.00,WUHU216HW,2013-03-08 01:46:00,
2013-03-07 19:51:00,62.7,51.6,30.07,North,0,0.0,0.0,68,0.00,,,0.00,WUHU216HW,2013-03-08 01:51:00,
2013-03-07 19:56:00,62.4,51.7,30.07,North,0,0.0,0.0,68,0.00,,,0.00,WUHU216HW,2013-03-08 01:56:00,
2013-03-07 20:01:00,62.2,51.5,30.07,North,0,0.0,0.0,69,0.00,,,0.00,WUHU216HW,2013-03-08 02:01:00,
2013-03-07 20:06:00,62.2,51.5,30.08,North,0,0.0,0.0,69,0.00,,,0.00,WUHU216HW,2013-03-08 02:06:00,
2013-03-07 20:11:00,62.2,51.5,30.08,North,0,0.0,0.0,69,0.00,,,0.00,WUHU216HW,2013-03-08 02:11:00,
2013-03-07 20:16:00,61.8,51.6,30.07,North,0,0.0,0.0,69,0.00,,,0.00,WUHU216HW,2013-03-08 02:16:00,
2013-03-07 20:21:00,61.8,51.6,30.07,North,0,0.0,0.0,70,0.00,,,0.00,WUHU216HW,2013-03-08 02:21:00,
2013-03-07 20:26:00,61.7,51.8,30.08,North,0,0.0,0.0,70,0.00,,,0.00,WUHU216HW,2013-03-08 02:26:00,
2013-03-07 20:31:00,61.7,51.8,30.08,North,0,0.0,0.0,71,0.00,,,0.00,WUHU216HW,2013-03-08 02:31:00,
2013-03-07 20:36:00,61.5,52.0,30.08,North,0,0.0,0.0,71,0.00,,,0.00,WUHU216HW,2013-03-08 02:36:00,
2013-03-07 20:41:00,61.5,52.0,30.08,North,0,0.0,0.0,71,0.00,,,0.00,WUHU216HW,2013-03-08 02:41:00,
2013-03-07 20:46:00,61.5,52.0,30.08,North,0,0.0,0.0,71,0.00,,,0.00,WUHU216HW,2013-03-08 02:46:00,
2013-03-07 20:51:00,61.3,51.9,30.08,North,0,0.0,0.0,71,0.00,,,0.00,WUHU216HW,2013-03-08 02:51:00,
2013-03-07 20:56:00,61.3,51.9,30.08,North,0,0.0,0.0,71,0.00,,,0.00,WUHU216HW,2013-03-08 02:56:00,
2013-03-07 21:01:00,61.1,51.7,30.09,North,0,0.0,0.0,71,0.00,,,0.00,WUHU216HW,2013-03-08 03:01:00,
2013-03-07 21:06:00,60.9,51.9,30.09,North,0,0.0,0.0,72,0.00,,,0.00,WUHU216HW,2013-03-08 03:06:00,
2013-03-07 21:11:00,60.8,51.8,30.09,North,0,0.0,0.0,72,0.00,,,0.00,WUHU216HW,2013-03-08 03:11:00,
2013-03-07 21:16:00,60.6,51.6,30.08,North,0,0.0,0.0,73,0.00,,,0.00,WUHU216HW,2013-03-08 03:16:00,
2013-03-07 21:21:00,60.4,51.8,30.08,North,0,0.0,0.0,73,0.00,,,0.00,WUHU216HW,2013-03-08 03:21:00,
2013-03-07 21:26:00,60.6,51.9,30.08,North,0,0.0,0.0,73,0.00,,,0.00,WUHU216HW,2013-03-08 03:26:00,
2013-03-07 21:31:00,60.4,51.8,30.08,North,0,0.0,0.0,73,0.00,,,0.00,WUHU216HW,2013-03-08 03:31:00,
2013-03-07 21:36:00,60.4,51.8,30.08,North,0,0.0,0.0,73,0.00,,,0.00,WUHU216HW,2013-03-08 03:36:00,
2013-03-07 21:41:00,60.4,51.8,30.08,North,0,0.0,0.0,73,0.00,,,0.00,WUHU216HW,2013-03-08 03:41:00,
2013-03-07 21:46:00,60.4,51.8,30.09,North,0,0.0,0.0,73,0.00,,,0.00,WUHU216HW,2013-03-08 03:46:00,
2013-03-07 21:51:00,60.4,51.8,30.08,North,0,0.0,0.0,73,0.00,,,0.00,WUHU216HW,2013-03-08 03:51:00,
2013-03-07 21:56:00,60.0,51.4,30.08,North,0,0.0,0.0,73,0.00,,,0.00,WUHU216HW,2013-03-08 03:56:00,
2013-03-07 22:02:00,60.0,51.4,30.08,North,0,0.0,0.0,73,0.00,,,0.00,WUHU216HW,2013-03-08 04:02:00,
2013-03-07 22:07:00,59.7,51.4,30.08,North,0,0.0,0.0,74,0.00,,,0.00,WUHU216HW,2013-03-08 04:07:00,
2013-03-07 22:12:00,59.7,51.4,30.07,North,0,0.0,0.0,74,0.00,,,0.00,WUHU216HW,2013-03-08 04:12:00,
2013-03-07 22:17:00,59.7,51.4,30.08,North,0,0.0,0.0,75,0.00,,,0.00,WUHU216HW,2013-03-08 04:17:00,
2013-03-07 22:22:00,59.5,51.6,30.08,North,0,0.0,0.0,75,0.00,,,0.00,WUHU216HW,2013-03-08 04:22:00,
2013-03-07 22:27:00,59.3,51.4,30.08,North,0,0.0,0.0,75,0.00,,,0.00,WUHU216HW,2013-03-08 04:27:00,
2013-03-07 22:32:00,59.3,51.4,30.08,North,0,0.0,0.0,75,0.00,,,0.00,WUHU216HW,2013-03-08 04:32:00,
2013-03-07 22:37:00,59.0,51.0,30.08,North,0,0.0,0.0,75,0.00,,,0.00,WUHU216HW,2013-03-08 04:37:00,
2013-03-07 22:42:00,59.0,51.0,30.08,North,0,0.0,0.0,75,0.00,,,0.00,WUHU216HW,2013-03-08 04:42:00,
2013-03-07 22:47:00,59.0,51.0,30.08,North,0,0.0,0.0,75,0.00,,,0.00,WUHU216HW,2013-03-08 04:47:00,
2013-03-07 22:52:00,59.0,51.0,30.08,North,0,0.0,0.0,75,0.00,,,0.00,WUHU216HW,2013-03-08 04:52:00,
2013-03-07 22:57:00,59.0,51.0,30.08,North,0,0.0,0.0,75,0.00,,,0.00,WUHU216HW,2013-03-08 04:57:00,
2013-03-07 23:02:00,59.0,51.0,30.08,North,0,0.0,0.0,76,0.00,,,0.00,WUHU216HW,2013-03-08 05:02:00,
2013-03-07 23:07:00,59.0,51.0,30.08,North,0,0.0,0.0,76,0.00,,,0.00,WUHU216HW,2013-03-08 05:07:00,
2013-03-07 23:12:00,59.0,51.0,30.08,North,0,0.0,0.0,76,0.00,,,0.00,WUHU216HW,2013-03-08 05:12:00,
2013-03-07 23:17:00,59.0,51.0,30.08,North,0,0.0,0.0,76,0.00,,,0.00,WUHU216HW,2013-03-08 05:17:00,
2013-03-07 23:22:00,59.0,51.0,30.07,North,0,0.0,0.0,76,0.00,,,0.00,WUHU216HW,2013-03-08 05:22:00,
2013-03-07 23:27:00,59.0,51.0,30.08,North,0,0.0,0.0,76,0.00,,,0.00,WUHU216HW,2013-03-08 05:27:00,
2013-03-07 23:32:00,58.8,51.2,30.08,North,0,0.0,0.0,76,0.00,,,0.00,WUHU216HW,2013-03-08 05:32:00,
2013-03-07 23:37:00,58.6,51.4,30.07,North,0,0.0,0.0,77,0.00,,,0.00,WUHU216HW,2013-03-08 05:37:00,
2013-03-07 23:42:00,58.6,51.4,30.07,North,0,0.0,0.0,77,0.00,,,0.00,WUHU216HW,2013-03-08 05:42:00,
2013-03-07 23:47:00,58.6,51.4,30.07,North,0,0.0,0.0,77,0.00,,,0.00,WUHU216HW,2013-03-08 05:47:00,
2013-03-07 23:52:00,58.6,51.4,30.07,North,0,0.0,0.0,77,0.00,,,0.00,WUHU216HW,2013-03-08 05:52:00,
2013-03-07 23:57:00,58.6,51.4,30.07,North,0,0.0,0.0,77,0.00,,,0.00,WUHU216HW,2013-03-08 05:57:00,